TimeEST,TemperatureF,Dew PointF,Humidity,Sea Level PressureIn,VisibilityMPH,Wind Direction,Wind SpeedMPH,Gust SpeedMPH,PrecipitationIn,Events,Conditions,WindDirDegrees,DateUTC
12:54 AM,41.0,33.1,73,30.21,10.0,Calm,Calm,-,N/A,,Clear,0,2012-11-20 05:54:00
1:54 AM,39.0,34.0,82,30.19,10.0,SE,5.8,-,N/A,,Clear,130,2012-11-20 06:54:00
2:54 AM,43.0,33.1,68,30.19,10.0,Calm,Calm,-,N/A,,Clear,0,2012-11-20 07:54:00
3:54 AM,39.9,33.1,77,30.19,10.0,Calm,Calm,-,N/A,,Partly Cloudy,0,2012-11-20 08:54:00
4:54 AM,39.9,33.1,77,30.19,10.0,Calm,Calm,-,N/A,,Clear,0,2012-11-20 09:54:00
5:54 AM,34.0,30.9,89,30.20,10.0,Calm,Calm,-,N/A,,Mostly Cloudy,0,2012-11-20 10:54:00
6:54 AM,37.0,33.1,86,30.20,10.0,Calm,Calm,-,N/A,,Partly Cloudy,0,2012-11-20 11:54:00
7:54 AM,39.9,34.0,79,30.20,10.0,Calm,Calm,-,N/A,,Overcast,0,2012-11-20 12:54:00
8:54 AM,44.1,37.9,79,30.20,10.0,Calm,Calm,-,N/A,,Overcast,0,2012-11-20 13:54:00
9:54 AM,46.9,39.9,77,30.19,10.0,Calm,Calm,-,N/A,,Overcast,0,2012-11-20 14:54:00
10:54 AM,52.0,42.1,69,30.19,10.0,Calm,Calm,-,N/A,,Overcast,0,2012-11-20 15:54:00
11:54 AM,57.0,37.0,47,30.16,10.0,Calm,Calm,-,N/A,,Overcast,0,2012-11-20 16:54:00
12:54 PM,57.9,34.0,41,30.14,10.0,Calm,Calm,-,N/A,,Overcast,0,2012-11-20 17:54:00
1:54 PM,59.0,34.0,39,30.12,10.0,South,4.6,-,N/A,,Overcast,190,2012-11-20 18:54:00
2:54 PM,60.1,33.1,36,30.10,10.0,SW,5.8,-,N/A,,Overcast,220,2012-11-20 19:54:00
3:54 PM,57.9,33.1,39,30.11,10.0,Calm,Calm,-,N/A,,Overcast,0,2012-11-20 20:54:00
4:54 PM,55.0,35.1,47,30.11,10.0,Calm,Calm,-,N/A,,Mostly Cloudy,0,2012-11-20 21:54:00
5:54 PM,50.0,36.0,59,30.14,10.0,Calm,Calm,-,N/A,,Overcast,0,2012-11-20 22:54:00
6:54 PM,48.9,36.0,61,30.15,10.0,Calm,Calm,-,N/A,,Overcast,0,2012-11-20 23:54:00
7:54 PM,48.9,37.9,66,30.16,10.0,East,3.5,-,N/A,,Overcast,90,2012-11-21 00:54:00
8:54 PM,50.0,39.0,66,30.16,10.0,East,5.8,-,0.00,Rain,Light Rain,80,2012-11-21 01:54:00
9:54 PM,50.0,37.9,63,30.16,10.0,East,4.6,-,0.00,,Overcast,90,2012-11-21 02:54:00
10:54 PM,50.0,37.0,61,30.16,10.0,East,6.9,-,0.00,,Overcast,80,2012-11-21 03:54:00
11:54 PM,46.9,37.0,68,30.15,10.0,ESE,4.6,-,N/A,,Mostly Cloudy,110,2012-11-21 04:54:00